Regional Weather Roundup
Issued by NWS Pendleton, OR

Current Version | Previous Version | Text Only | Print | Product List | Glossary On
Versions: 1 2 3 4 5 6 7 8 9 10 11 12 13 14 15 16 17 18 19 20 21 22 23 24 25 26 27 28 29 30 31 32 33 34 35 36 37 38 39 40 41 42 43 44 45 46 47 48 49 50
000
ASUS46 KPDT 310025
RWRPDT
PENDLETON REGIONAL WEATHER ROUNDUP
NATIONAL WEATHER SERVICE PENDLETON OREGON
500 PM PDT SAT JUL 30 2016

NOTE: FAIR INDICATES FEW OR NO CLOUDS BELOW 12,000 FEET WITH NO
SIGNIFICANT WEATHER AND/OR OBSTRUCTIONS TO VISIBILITY.

# INDICATES UNOFFICIAL STATION AND DATA

WAZ520-310110-
EAST SLOPES OF WASHINGTON CASCADES

CITY            SKY/WX      TMP DP  RH  WIND    PRES   REMARKS
#BULLFROG       N/A         55  N/A N/A N3      N/A
#BUMPING DAM    N/A         55  32  41  CALM    N/A
#CLE ELUM HS    N/A         74  49  41  W10     29.81S
#CLE ELUM 2NW   N/A         73  47  40  NW3     N/A
#CLIFFDEL 2NW   N/A         55  N/A N/A W3      N/A
#EASTON DOT     N/A         55  86  100 W22G30  N/A
#ELK HTS DOT    N/A         55  140 100 NW1     N/A
#GLENWOOD       N/A         80  55  42  S5      29.73S
#NELSON 3SW     N/A         71  44  38  NE1     29.93R
#NILE           N/A         81  42  25  W5      29.00F
#PEOH POINT     N/A         55  50  83  NW2     N/A
#RONALD 2NW     N/A         75  N/A N/A W3      29.96S
#SOUTH BLEWITT  N/A         55  14  19  W18G40  N/A
#TEANAWAY 4NE   N/A         76  54  46  SW6     N/A
#TROUT LAKE 1NE N/A         76  51  42  W15     29.75
$$

WAZ521-310110-
SIMCOE HIGHLANDS

CITY            SKY/WX      TMP DP  RH  WIND    PRES   REMARKS
#SATUS PASS DOT N/A         55  86  100 W18G40  N/A
#CENTERVILLE 1SWN/A         77  51  40  N22     29.72
#GOLDENDALE     N/A         55  32  41  NW8     N/A
#GOLDENDALE 1NE N/A         80  28  15  SW7     N/A
#GOLDENDALE 4W  N/A         81  55  41  W24     29.85S
#GOODNOE HILLS  N/A         85  46  26  W30     29.69S
#LYLE 6NE       N/A         74  52  46  SW18G29 29.75R
$$

WAZ026-310110-
KITTITAS VALLEY

CITY            SKY/WX      TMP DP  RH  WIND    PRES   REMARKS
ELLENSBURG AP   SUNNY       82  44  26  NW23G37 29.81
6HR MIN TEMP:   80; 6HR MAX TEMP:   86;

#ELLENSBURG CWU N/A         81  41  24  W22     29.65
#ELLENSBURG 3NE N/A         78  48  35  N14G26  29.81
#ELLENSBURG     N/A         81  43  26  NW14    N/A
#KITTITAS 4N    N/A         80  49  34  W16     29.83S
#KITTITAS 3S    N/A         79  45  30  N13G26  29.66S
#MANASTASH RDG  N/A         55  140 100 SW13    N/A
#ROCKY CYN DOT  N/A         55  N/A N/A NW1     N/A
#RYEGRASS DOT   N/A         55  140 100 SW13    N/A
#THORP 6N       N/A         73  50  44  W30G47  29.70S
$$

WAZ027-310110-
YAKIMA VALLEY

CITY            SKY/WX      TMP DP  RH  WIND    PRES   REMARKS
SUNNYSIDE AP    SUNNY       91  50  25  W10     29.68S HX 88
YAKIMA AIRPORT  SUNNY       96  35  12  N16     29.72  HX 91
6HR MIN TEMP:   89; 6HR MAX TEMP:   98;

YAKIMA-VAGABOND N/A         94  28  10  N16     29.72  HX 89
6HR MIN TEMP:   86; 6HR MAX TEMP:   95;

#DONALD 2NE     N/A         96  15   5  W3      28.56  HX 91
#GRANDVIEW      N/A         93  41  17  W5      29.64S HX 89
#MABTON         N/A         92  45  20  NW7     29.67  HX 88
#NACHES 2SW     N/A         85  45  25  W9      29.79S
#OUTLOOK DOT    N/A         55  14  19  N3      N/A
#SELAH 8E       N/A          7   5  91  NW2     N/A
#TERRACE HTS    N/A         95  36  13  N7      29.61S HX 90
#TOPPENISH      N/A         93  46  20  W8      29.56S HX 89
#I82 S UMTANUM RN/A         55  N/A N/A W16G35  N/A
#UNION GAP DOT  N/A         55  N/A N/A N3      N/A
#WEST VALLEY    N/A         90  39  17  N7      29.63S HX 86
#W YAKIMA       N/A         90  42  19  W3      29.65S HX 86
#WHITE SWAN 5E  N/A         92  39  16  W13     29.66  HX 88
#WILEY CITY 3W  N/A         93  23   8  CALM    29.72S HX 88
#ZILLAH DOT     N/A         55  N/A N/A N3      N/A
$$

WAZ028-310110-
LOWER COLUMBIA BASIN...WASHINGTON

CITY            SKY/WX      TMP DP  RH  WIND    PRES   REMARKS
PASCO           SUNNY       99  32  10  S17     29.66  HX 94
6HR MIN TEMP:   89; 6HR MAX TEMP:   99;

PROSSER AWOS    N/A         93  45  19  W8      29.71  HX 89
RICHLAND AWOS   SUNNY       101 39  12  SW14    29.64F HX 96
#BENTON CITY    N/A         92  50  24  W5      29.53  HX 89
#CONNELL 5N     N/A         95  42  16  NW2     29.61S HX 91
#CONNELL 5NW    N/A         92  56  30  S7      29.57  HX 90
#ELTOPIA 6NW    N/A         92  59  33  CALM    28.65F HX 91
#KAHLOTUS       N/A         93  42  17  W18G30  29.59S HX 89
#KENNEWICK 3S   N/A         92  44  19  N7      29.63S HX 88
#PATERSON       N/A         92  42  18  NW20G32 29.62S HX 88
#PROSSER DOT    N/A         55  86  100 N3      N/A
#SAGEMOOR 2W    N/A         95  46  19  S15     29.47S HX 91
#TOUCHET 2S     N/A         93  40  16  SW14    29.62F HX 89
#WEST PASCO     N/A         95  51  23  S5      29.62S HX 92
$$

WAZ029-310110-
FOOTHILLS OF THE BLUES...WASHINGTON

CITY            SKY/WX      TMP DP  RH  WIND    PRES   REMARKS
WALLA WALLA AP  SUNNY       94  23   8  W21G28  29.72  HX 89
6HR MIN TEMP:   87; 6HR MAX TEMP:   96;

#CLYDE 6NW      N/A         93  46  20  SW15G25 29.61  HX 89
#DAYTON SCHOOL  N/A         91  31  12  SW7     29.74F HX 87
#DELANEY DOT    N/A         55  86  100 W10     N/A
#LOWDEN 2SE     N/A         94  39  15  W14     29.64S HX 90
#PLEASANT VIEW 1N/A         92  42  18  SW10    29.65  HX 88
#PRESCOTT       N/A         92  44  19  SW3     29.61S HX 88
#WHITMAN COLLEGEN/A         92  32  12  W7      29.68F HX 88
#WAITSBURG 5S   N/A         92  36  14  W7      29.72  HX 88
#WAITSBURG 8N   N/A         92  32  12  S13     29.70S HX 88
#WALLA WALLA U  N/A         94  34  12  SW2     29.63F HX 89
#WHITMAN MISSIONN/A         94  36  13  W15     29.65  HX 89
$$

WAZ030-310110-
BLUE MOUNTAINS...WASHINGTON

CITY            SKY/WX      TMP DP  RH  WIND    PRES   REMARKS
#DIXIE 5SE      N/A         74  47  38  SW15    29.78
$$

ORZ009-041-WAZ024-310110-
COLUMBIA RIVER GORGE

CITY            SKY/WX      TMP DP  RH  WIND    PRES   REMARKS
HOOD RIVER AP   SUNNY       81  50  34  W6      29.87
THE DALLES AP   SUNNY       86  45  24  NW22G32 29.79
6HR MIN TEMP:   80; 6HR MAX TEMP:   87;

#ARLINGTON AIRPON/A         86  46  25  W22G29  29.69R
#LYLE           N/A         78  54  43  W18G40  29.82R
#MARYHILL       N/A         55  140 100 N3      N/A
#MARYHILL 2W    N/A         80  50  35  W14     N/A
#MOSIER 1S      N/A         78  37  23  N15     29.85S
#MURDOCK        N/A         79  55  44  W20G26  29.76S
#RUFUS DOT      N/A         87  43  22  W26     N/A
#SMITHVILLE     N/A         81  53  38  N21G31  29.70F

$$

ORZ510-310110-
NORTH CENTRAL OREGON

CITY            SKY/WX      TMP DP  RH  WIND    PRES   REMARKS
#ANTELOPE       N/A         85  35  17  S6      29.55
#CHENOWITH 1W   N/A         75  45  34  NW36    N/A
#COW CYN RST AREN/A         84  N/A N/A NW8     N/A
#DUFUR 9E       N/A         77  39  25  NW24G36 29.80S
#GRASS VALLEY 1SN/A         83  27  13  W16G24  29.83S
#KENT DOT       N/A         84  30  14  N21     N/A
#MAUPIN SCHOOL  N/A         87  28  12  W14     29.83S
#SHANIKO 5WSW   N/A         82  30  15  N18     N/A
#SHANIKO 4NW    N/A         80  51  36  NW18G29 29.95
#TYGH VALLEY 2NEN/A         88  38  17  N12     29.72
#WAPANITIA AIRPON/A         82  31  16  NW16G28 29.74
#WASCO DOT      N/A         82  47  29  W25     N/A
#WASCO AIRPORT  N/A         84  32  15  NW24    N/A
#WASCO 5NE      N/A         81  47  30  W20G35  29.72
$$

ORZ511-310110-
CENTRAL OREGON

CITY            SKY/WX      TMP DP  RH  WIND    PRES   REMARKS
BEND AIRPORT    SUNNY       86  36  17  N21G28  29.91S
MADRAS AIRPORT  SUNNY       91  30  11  N18G30  29.89  HX 87
PRINEVILLE AP   SUNNY       88  32  14  N15     29.90S
REDMOND AIRPORT SUNNY       89  27  11  NW21G29 29.89
6HR MIN TEMP:   82; 6HR MAX TEMP:   93;

#ASHWOOD SCHOOL N/A         87  21   9  W7      29.85S
#BEND 1SW       N/A         84  41  22  E2      N/A
#BEND-AWBREY    N/A         86  44  23  N3      29.70S
#CULVER         N/A         86  36  17  N7      29.65S
#CULVER 8W      N/A         91  29  11  SW5     29.91F HX 87
#LAKE BILLY CHINN/A         87  N/A N/A W10     29.90S
#MADRAS         N/A         55  32  41  W15     N/A
#MADRAS 4S      N/A         85  27  12  NW15    29.96S
#POWELL BUTTE 3EN/A         86  42  21  NW12    N/A
#POWELL BUTTE   N/A         86  42  21  NW17    29.80S
#PRINEVILLE 3N  N/A         84  42  23  NW13    29.78S
#WARM SPRINGS   N/A         89  41  19  CALM    29.80S

$$


ORZ509-310110-
EAST SLOPES OF OREGON CASCADES

CITY            SKY/WX      TMP DP  RH  WIND    PRES   REMARKS
SISTERS AWOS    N/A         82  36  19  W18G35  29.89
#BLUE BOX PASS  N/A         70  N/A N/A S1      N/A
#CAMP SHERMAN   N/A         82  38  21  N1      29.87F
#LA PINE DOT    N/A         85  35  17  W8      N/A
#LA PINE 4NW    N/A         83  46  27  SW1     29.76
#LAVA BUTTE DOT N/A         88  39  18  S3      N/A
#SISTERS AIRPOR N/A         82  46  28  N12G29  30.17S
#SISTERS ODOT   N/A         83  N/A N/A SE12    N/A
#SISTERS 3N     N/A         82  42  24  NW3     29.91S
#SUNRIVER       N/A         85  38  19  SW3     29.88R
#SUTTLE LK DOT  N/A         74  48  40  W16G35  N/A
#TUMALO 3W      N/A         83  41  23  N17     29.58
#WANOGA BUTTE D N/A         72  31  22  N8      N/A

$$

ORZ044-310110-
LOWER COLUMBIA BASIN...OREGON

CITY            SKY/WX      TMP DP  RH  WIND    PRES   REMARKS
HERMISTON       SUNNY       95  26   8  W22G29  29.68  HX 90
6HR MIN TEMP:   86; 6HR MAX TEMP:   97;

#BOARDMAN 8SW   N/A         89  45  22  SW17    29.67S
#ECHO 8SW       N/A         92  30  11  W16     29.71S HX 88
#I-84 EX 198 DOTN/A         92  46  21  E33     N/A    HX 88
#IRRIGON 4NW    N/A         55  50  83  S5      N/A
#UMATILLA       N/A         93  37  14  SW18    29.58  HX 89
$$

ORZ507-310110-
NORTHERN FOOTHILLS OF THE BLUES

CITY            SKY/WX      TMP DP  RH  WIND    PRES   REMARKS
PENDLETON AIRPT SUNNY       95  20   7  W24G33  29.74  HX 90
6HR MIN TEMP:   85; 6HR MAX TEMP:   96;

#ADAMS 3WNW     N/A         92  22   8  W21G30  29.63F HX 88
#ATHENA         N/A         91  27  10  SW12    29.67  HX 87
#CAYUSE         N/A         91  29  11  W12G30  29.64S HX 87
#HELIX SCHOOL   N/A         91  27  10  W15G30  29.65  HX 87
#HELIX 3N       N/A         89  23   9  W17G31  29.75F
#HOLDMAN 5SE    N/A         92  28  10  W21G32  29.74S HX 88
#HOLDMAN 6E     N/A         90  24   9  NE20G26 29.46F HX 86
#M-F GROVE ELEM N/A         95  24   8  W8      29.71  HX 90
#M-FREEWATER 5SEN/A         92  42  18  W5      29.74S HX 88
#PENDLETON DNTN N/A         95  40  15  NW3     29.74S HX 91
#PDT AQUATIC CTRN/A         93  31  11  W10     29.53S HX 88
#PDT SUNRIDGE   N/A         94  24   8  W15G25  29.73S HX 89
#PENDLETON 7NW  N/A         92  45  20  W20G32  31.70S HX 88
#PILOT ROCK     N/A         93  28  10  NW9     29.81S HX 88
#TUTUILLA       N/A         94  27   9  CALM    29.68S HX 89
#UMAPINE 2E     N/A         91  43  19  W7      29.66S HX 87
#WESTON SCHOOL  N/A         90  21   8  NE8     29.57S HX 86

$$

ORZ508-310110-
SOUTHERN FOOTHILLS OF THE BLUES

CITY            SKY/WX      TMP DP  RH  WIND    PRES   REMARKS
LEXINGTON       SUNNY       90  23   9  W24G31  29.82S HX 86
#CONDON 5W      N/A         80  23  12  W15G26  29.87R
#HEPPNER EOC    N/A         85  25  11  NW17G29 29.62S
#HEPPNER 4NE    N/A         83  21  10  W18G32  29.68R
#LEXINGTON 2SE  N/A         88  33  14  W18G31  29.77
#OLEX 4N        N/A         84  34  17  W33G41  29.75F
#RUGGS 5NE      N/A         85  -13  2  W22G30  30.04
#RUGGS 2SW      N/A         85  22  10  NW17G29 29.70R

$$

ORZ502-503-310110-
BLUE MOUNTAINS

CITY            SKY/WX      TMP DP  RH  WIND    PRES   REMARKS
#BATTLE MTN DOT N/A         83  39  21  NW1     N/A
#CUTSFORTH PARK N/A         81  26  13  CALM    29.72R
#GREENHORN 9SW  N/A         90  34  14  W6      26.08  HX 86
#HARDMAN 10S    N/A         61  34  36  N5      30.22S
#HEPPNER 15SE   N/A         78  25  14  W2      29.86
#N POWDER DOT   N/A         86  51  30  NE16    N/A
#PIKES PEAK     N/A         81  26  13  SW21G35 27.99
#TOLLGATE       N/A         75  24  15  SW5     29.85
#TROY SCHOOL    N/A         96  39  14  SW1     29.47  HX 91
#UKIAH          N/A         85  29  13  NW12    29.59
#WESTON 4E      N/A         85  25  11  SW10    29.63
$$

ORZ505-310110-
JOHN DAY BASIN

CITY            SKY/WX      TMP DP  RH  WIND    PRES   REMARKS
JOHN DAY        SUNNY       93  33  12  W16G24  29.87S HX 89
#DAYVILLE SCHOOLN/A         94  27   9  N7      29.79S HX 89
#MITCHELL       N/A         89  45  22  NW1     30.03S
#MITCHELL 8NW   N/A         88  29  12  NW7     29.85
#MONUMENT HS    N/A         94  27   9  NW12    29.65  HX 89
#MT. VERNON 5SE N/A         88  36  16  W2      29.85S
#SPRAY SCHOOL   N/A         95  N/A N/A N3      N/A
$$

ORZ506-310110-
OCHOCO AND JOHN DAY HIGHLANDS

CITY            SKY/WX      TMP DP  RH  WIND    PRES   REMARKS
#BUCK CREEK DOT N/A         92  36  14  W12     N/A    HX 88
#HORSE RIDGE DO N/A         85  31  14  NW16    N/A
#KEYES SMT DOT  N/A         84  31  15  W8      N/A
#PAULINA SCHOOL N/A         92  27  10  W9      N/A    HX 88
#PINE MTN OBS   N/A         75  37  25  NW8     N/A
#PRAIRIE CITY   N/A         94  37  14  W5      30.00F HX 90
#SENECA         N/A         87  N/A N/A W3      N/A
#SENECA 9NW     N/A         89  35  15  CALM    29.63
$$

ORZ049-310110-
GRANDE RONDE VALLEY

CITY            SKY/WX      TMP DP  RH  WIND    PRES   REMARKS
#ISLAND CITY 4N N/A         77  49  37  W3      29.96
$$

ORZ050-310110-
WALLOWA COUNTY

CITY            SKY/WX      TMP DP  RH  WIND    PRES   REMARKS
JOSEPH AIRPORT  SUNNY       86  32  14  N13     N/A
#ENTERPRISE AP  N/A         49  29  46  CALM    29.83S
#ENTERPRISE HS  N/A         86  41  21  N8      29.87
#IMNAHA SCHOOL  N/A         96  33  11  N3      29.72S HX 91
#IMNAHA 10S     N/A         94  39  15  S5      29.79  HX 90
#JOSEPH 3N      N/A         82  37  20  N9      29.90
#JOSEPH 3W      N/A         83  35  18  W2      29.78S
#LOSTINE        N/A         87  35  16  N5      29.45
#LOSTINE 3SE    N/A         86  33  15  N14     29.84S
#MT HOWARD 8000 N/A         67  36  32  NW3     30.21S
#PROMISE 1S     N/A         83  35  18  E14     29.75S
#WALLOWA SCHOOL N/A         88  33  14  NW3     29.80S



$$



USA.gov is the U.S. government's official web portal to all federal, state and local government web resources and services.